Location: Praha
(50.0830°N, 14.4670°E)
Time: 18:38:09
(UTC+02:00)

ISS - Pass Details

Date: 12 July 2021
Orbit: 419 x 421 km, 51.6° (Epoch: 02 August)

Event Time Altitude Azimuth Distance (km) Brightness Sun altitude
Exits shadow 02:05:25 - 272° (W) 2,222 -0.2 -16.8°
Reaches altitude 10° 02:07:10 10° 275° (W) 1,504 -1.1 -16.8°
Maximum altitude 02:10:32 65° 358° (N) 467 -3.4 -16.6°
Drops below altitude 10° 02:13:53 10° 81° (E) 1,503 -0.6 -16.5°
Sets 02:16:00 0° 84° (E) 2,367 0.4 -16.4°
